Flag for Poland Weather past 2 weeks in Białystok, Poland

Now
69 °F

Low clouds.


Feels Like: 69 °F
Forecast: 65 / 93 °F
Wind: 2 mph from North

Location: Bialystok

Current Time: Aug 1, 2014 at 1:59:22 PM

Latest Report: Aug 1, 2014 at 1:00 PM


Visibility: 9 mi

Pressure: 29.98 "Hg

Humidity: 88%

Dew point: 65 °F

Location of BiałystokLocation

Historic Weather in Białystok — Graph

°F

Białystok temperature yesterday

Maximum temperature yesterday: 86 °F (at 2:00 PM)
Minimum temperature yesterday: 60 °F (at 4:00 AM)
Average temperature yesterday: 71 °F

Past Weeks' High & Low Weather Summary

 TemperatureHumidityPressure
High87 °F (Jul 29, 2:00 PM)98% (Jul 20, 5:00 AM)30.16 "Hg (Jul 20, 5:00 AM)
Low53 °F (Jul 19, 5:00 AM)32% (Jul 24, 6:00 PM)29.78 "Hg (Jul 31, 2:00 PM)
Average70 °F69%29.99 "Hg
* Reported Jul 17 12:00 Noon — Aug 1 12:00 Noon, Białystok, Weather by CustomWeather, © 2014

Note: Actual official high and low records may vary slightly from our data, if they occured in-between our weather recording intervals... More about our weather records

Advertising

Białystok weather history for previous 24 hours

 ConditionsComfort  
Time TempWeatherWind HumidityBarometerVisibility
12:00 PM
Aug 1
68 °FLow clouds.2 mph92%29.97 "Hg9 mi
11:00 AM68 °FLight rain. Low clouds.1 mph89%29.97 "Hg9 mi
10:00 AM68 °FLow clouds.1 mph88%29.96 "Hg10 mi
9:00 AM67 °FLow clouds.2 mph89%29.95 "Hg12 mi
8:00 AM67 °FOvercast.2 mph88%29.95 "Hg17 mi
7:00 AM66 °FOvercast.2 mph89%29.95 "Hg19 mi
6:00 AM66 °FOvercast.3 mph88%29.94 "Hg22 mi
5:00 AM67 °FOvercast.2 mph92%29.93 "Hg7 mi
4:00 AM68 °FFog.2 mph94%29.92 "Hg4 mi
3:00 AM67 °FFog.1 mph95%29.91 "Hg3 mi
2:00 AM67 °FFog.2 mph95%29.89 "Hg3 mi
1:00 AM68 °FFog.3 mph96%29.89 "Hg3 mi
12:00 AM68 °FFog.1 mph94%29.90 "Hg2 mi
11:00 PM
Jul 31
69 °FFog.2 mph95%29.90 "Hg2 mi
10:00 PM70 °FFog.1 mph95%29.88 "Hg2 mi
9:00 PM70 °FOvercast.1 mph95%29.87 "Hg2 mi
8:00 PM70 °FSprinkles. Overcast.1 mph95%29.85 "Hg2 mi
7:00 PM70 °FSprinkles. Overcast.1 mph93%29.84 "Hg4 mi
6:00 PM70 °FOvercast.No wind93%29.83 "Hg7 mi
5:00 PM70 °FThundershowers. Overcast.3 mph92%29.84 "Hg6 mi
4:00 PM72 °FThundershowers. Overcast.3 mph82%29.82 "Hg8 mi
3:00 PM84 °FOvercast.2 mph48%29.78 "Hg19 mi
2:00 PM86 °FPartly sunny.3 mph44%29.78 "Hg22 mi
1:00 PM85 °FPartly sunny.3 mph45%29.78 "Hg17 mi
Weather by CustomWeather, © 2014

See weather overviewHow to use our weather pages